Regional Weather Roundup
Issued by NWS Little Rock, AR

Home | Current Version | Previous Version | Text Only | Print | Product List | Glossary Off
Versions: 1 2 3 4 5 6 7 8 9 10 11 12 13 14 15 16 17 18 19 20 21 22 23 24 25 26 27 28 29 30 31 32 33 34 35 36 37 38 39 40 41 42 43 44 45 46 47 48 49 50

000
ASUS44 KLZK 260205
RWRLZK

WEATHER ROUNDUP FOR ARKANSAS
NATIONAL WEATHER SERVICE LITTLE ROCK AR
900 PM CDT TUE APR 25 2017

NOTE: "FAIR" INDICATES FEW OR NO CLOUDS BELOW 12,000 FEET WITH NO
SIGNIFICANT WEATHER AND/OR OBSTRUCTIONS TO VISIBILITY.

ARZ001-003-010-029-260300-
NORTHWEST ARKANSAS

CITY           SKY/WX    TMP DP  RH WIND       PRES   REMARKS
FAYETTEVILLE   MOCLDY    70  62  76 S7        29.47S
FORT SMITH     CLOUDY    76  61  59 SE6       29.44F
HARRISON       CLEAR     70  60  70 S7        29.50S
BENTONVILLE    MOCLDY    70  61  73 S6        29.48S
ROGERS         CLOUDY    71  62  73 S7        29.48S
SILOAM SPGS    CLOUDY    72  59  64 S6        29.46S
HIGHFILL       CLOUDY    69  62  78 S6        29.47S
SPRINGDALE     CLOUDY    72  63  73 S10G22    29.48F
$$

ARZ004-005-016-260300-
NORTH CENTRAL ARKANSAS

CITY           SKY/WX    TMP DP  RH WIND       PRES   REMARKS
BATESVILLE     PTCLDY   N/A N/A N/A SE8       29.54R
FLIPPIN        MOCLDY   N/A N/A N/A SE5       29.47S
MTN HOME       CLOUDY    70  57  63 SE6       29.50R
$$

ARZ040-041-260300-
WEST CENTRAL ARKANSAS

CITY           SKY/WX    TMP DP  RH WIND       PRES   REMARKS
MENA           CLOUDY    75  68  78 SE7       29.52F
MOUNT IDA      CLOUDY    76  61  59 S8        29.51S
$$

ARZ009-017-025-026-028-260300-
NORTHEAST ARKANSAS

CITY           SKY/WX    TMP DP  RH WIND       PRES   REMARKS
JONESBORO      CLEAR     71  53  52 S9        29.57R
NEWPORT        PTCLDY    70  54  56 MISG      29.56R
WALNUT RIDGE   CLEAR     70  54  56 S12       29.55R
BLYTHEVILLE    CLEAR     70  55  59 S7        29.59R
$$

ARZ022-023-033-042-044-260300-
CENTRAL ARKANSAS

CITY           SKY/WX    TMP DP  RH WIND       PRES   REMARKS
LITTLE ROCK    MOCLDY    71  61  70 S5        29.55R
N LITTLE ROCK    N/A     73  60  63 S7        29.56R
JACKSONVILLE   CLEAR     74  60  60 S6        29.55R
CONWAY           N/A     75  61  60 S9        29.52R
SEARCY         PTCLDY    70  59  68 S8        29.57R
HOT SPRINGS    CLOUDY    76  64  66 SW12G22   29.55R
RUSSELLVILLE   CLOUDY    76  61  59 E3        29.51R
$$

ARZ036-260300-
EAST ARKANSAS

CITY           SKY/WX    TMP DP  RH WIND       PRES   REMARKS
WEST MEMPHIS   CLEAR     70  56  61 S13       29.58S
$$

ARZ050-053-066-070-073-260300-
SOUTHWEST ARKANSAS

CITY           SKY/WX    TMP DP  RH WIND       PRES   REMARKS
ARKADELPHIA      N/A     75  64  68 S9        29.56R
CAMDEN         MOCLDY    73  59  60 S7        29.57R
TEXARKANA      CLOUDY    75  65  70 S14G21    29.54S
EL DORADO        N/A    N/A N/A N/A MISG      29.58R
DE QUEEN       MOCLDY    75  66  73 SE7       29.48F
$$

ARZ056-057-069-260300-
SOUTHEAST ARKANSAS

CITY           SKY/WX    TMP DP  RH WIND       PRES   REMARKS
PINE BLUFF     CLEAR     72  60  66 S9        29.57R
STUTTGART      CLEAR     73  52  46 S8        29.58R
MONTICELLO     CLEAR     73  60  63 S6        29.59R

$$





USA.gov is the U.S. government's official web portal to all federal, state and local government web resources and services.